Home > Weather > Tarija > Past weeks

Flag for Bolivia Past Weather in Tarija, Bolivia — Yesterday and Last 2 Weeks

Now
61 °F

Partly sunny.


Feels Like: 61 °F
Forecast: 48 / 65 °F
Wind: 9 mph from Southeast

Location: Tarija Airport

Current Time: May 26, 2016 at 2:35:36 PM

Latest Report: May 26, 2016 at 2:00 PM


Visibility: N/A

Pressure: 30.21 "Hg (24.21 "Hg at 1874m altitude)

Humidity: 63%

Dew Point: 48 °F

Location of TarijaLocation

Past Weather in Tarija — Graph

°F

Tarija Temperature Yesterday

Maximum temperature yesterday: 88 °F (at 3:00 PM)
Minimum temperature yesterday: 39 °F (at 6:00 AM)
Average temperature yesterday: 62 °F

High & Low Weather Summary for the Past Weeks

 TemperatureHumidityPressure
High88 °F (May 25, 3:00 PM)93% (May 23, 6:00 AM)30.45 "Hg (May 23, 6:00 AM)
Low32 °F (May 23, 6:00 AM)19% (May 25, 4:00 PM)29.86 "Hg (May 14, 4:00 PM)
Average58 °F66%30.14 "Hg
* Reported May 11 1:00 PM — May 26 1:00 PM, Tarija, Weather by CustomWeather, © 2016

Note: Actual official high and low records may vary slightly from our data, if they occured in-between our weather recording intervals... More about our weather records

Advertising

Tarija Weather History for the Previous 24 Hours

Scroll right to see more
 ConditionsComfort  
Time TempWeatherWind HumidityBarometerVisibility
1:00 PM
Thu, May 26
63 °FPartly sunny.5 mph59%30.24 "HgN/A
12:00 PM59 °FPartly sunny.5 mph68%30.27 "HgN/A
11:00 AM59 °FPartly sunny.5 mph68%30.27 "HgN/A
10:00 AM55 °FPartly sunny.5 mph77%30.30 "HgN/A
9:00 AM54 °FPartly sunny.No wind77%30.27 "HgN/A
8:00 AM50 °FOvercast.No wind82%30.24 "HgN/A
7:00 AM50 °FOvercast.No wind82%30.21 "HgN/A
6:00 AM50 °FOvercast.5 mph82%30.21 "HgN/A
11:00 PM
Wed, May 25
55 °FClear.6 mph82%30.15 "HgN/A
10:00 PM57 °FClear.5 mph77%30.12 "HgN/A
9:00 PM61 °FClear.5 mph59%30.12 "HgN/A
8:00 PM61 °FClear.No wind55%30.09 "HgN/A
7:00 PM63 °FClear.No wind42%30.07 "HgN/A
6:00 PM70 °FClear.5 mph38%30.04 "HgN/A
5:00 PM81 °FClear.12 mph21%29.98 "HgN/A
4:00 PM82 °FClear.7 mph19%29.95 "HgN/A
3:00 PM88 °FClear.5 mph25%29.95 "HgN/A
2:00 PM82 °FClear.6 mph32%29.98 "HgN/A
Weather by CustomWeather, © 2016

See weather overviewHow to use our weather pages